Content
SEND FEEDBACK

Daily
Averages
Monthly
Summary
United States of America

MOUNT SHASTA, CALIFORNIA


Home > North America > United States > California
Elevation: 3679 feet     Latitude: 41 19N     Longitude: 122 19W

WEATHER
 
SELECT A DAY
Number of Records: 231,425;   Date Range: 1/1/95 - 8/12/14
 
SHARE

PRINT THIS DATA

[ ← Previous Day ]
WEATHER ALMANAC - SEPTEMBER 17, 2013
[ Next Day → ]
[ °C ]   °F
Weather ElementAverageHighLow
Temperature55.7 °F68 °F (11:56 am)48.9 °F (8:56 pm)
Dewpoint45 °F50 °F (1:39 pm)41 °F (11:56 pm)
Humidity68.1 %83 % (7:56 pm)45 % (11:56 am)
Barometer29.91 in30.05 in (8:56 pm)29.79 in (3:56 am)
Wind Speed5.7 mph11.5 mph (12:56 pm)
Wind Gust26.5 mph (12:56 pm)
Weather ElementAverage
Visibility9.8 mi
Wind DirectionENE (81.2 °)

Weather ElementTotal
Precipitation0.04 in
Heating Degree Days6.6 (Base 65)
Growing Degree Days8.5 (Base 50)
Averaged from 25 records on September 17, 2013
WEATHER CONDITIONS BREAKOUT
WIND DIRECTION BREAKOUT
WEATHER BY HOUR - SEPTEMBER 17, 2013
[ °C ]   °F
Local TimeTemperatureDewpointHumidityBarometerVisibilityWind DirectionWind SpeedGust SpeedPrecipitationEventsConditions
1:56 AM55.9 °F43.0 °F62 %29.82 in10.0 miCalmMostly Cloudy
2:56 AM55.0 °F43.0 °F64 %29.82 in10.0 miCalmMostly Cloudy
3:56 AM57.9 °F43.0 °F58 %29.79 in10.0 miCalmMostly Cloudy
4:56 AM57.9 °F44.1 °F60 %29.80 in10.0 miVariable3.5 mphOvercast
5:56 AM55.9 °F44.1 °F64 %29.80 in10.0 miVariable6.9 mph0.01 inOvercast
6:56 AM55.9 °F44.1 °F64 %29.82 in10.0 miVariable6.9 mphOvercast
7:56 AM57.0 °F45.0 °F64 %29.83 in10.0 miVariable4.6 mphOvercast
8:56 AM57.0 °F46.0 °F67 %29.85 in10.0 miVariable5.8 mphMostly Cloudy
9:56 AM59.0 °F46.0 °F62 %29.85 in10.0 miNorth (350°)8.1 mphOvercast
10:56 AM62.1 °F46.0 °F56 %29.86 in10.0 miVariable6.9 mphMostly Cloudy
11:56 AM68.0 °F46.0 °F45 %29.86 in10.0 miVariable6.9 mphMostly Cloudy
12:56 PM60.1 °F45.0 °F57 %29.90 in10.0 miNorth (350°)11.5 mph26.5 mph0.00 inOvercast
1:31 PM53.6 °F48.2 °F82 %29.91 in5.0 miVariable5.8 mph0.00 inRainLight Rain
1:39 PM57.2 °F50.0 °F77 %29.91 in10.0 miNorth (350°)9.2 mph0.00 inOvercast
1:56 PM57.0 °F46.9 °F69 %29.91 in10.0 miVariable5.8 mph19.6 mph0.00 inRainLight Rain
2:56 PM61.0 °F45.0 °F56 %29.93 in10.0 miVariable6.9 mph0.00 inMostly Cloudy
3:56 PM55.0 °F48.0 °F77 %29.95 in10.0 miVariable6.9 mph0.03 inScattered Clouds
4:56 PM57.0 °F45.0 °F64 %29.95 in10.0 miVariable4.6 mphScattered Clouds
5:56 PM53.1 °F46.9 °F80 %29.98 in10.0 miVariable6.9 mph0.00 inMostly Cloudy
6:56 PM52.0 °F45.0 °F77 %30.00 in10.0 miNNW (340°)8.1 mph0.00 inOvercast
7:56 PM50.0 °F45.0 °F83 %30.02 in10.0 miWNW (300°)5.8 mph0.00 inPartly Cloudy
8:56 PM48.9 °F44.1 °F83 %30.05 in10.0 miVariable4.6 mphClear
9:56 PM48.9 °F43.0 °F80 %30.05 in10.0 miVariable4.6 mphClear
10:56 PM48.9 °F42.1 °F77 %30.04 in10.0 miVariable5.8 mphClear
11:56 PM48.9 °F41.0 °F74 %30.04 in10.0 miNNW (340°)5.8 mphClear
Hourly data recorded from KMHS, located miles away from Mount Shasta, California







STORIES FROM OUR PARTNERS